Regional Weather Roundup
Issued by NWS

Home | Current Version | Previous Version | Graphics & Text | Print | Product List | Glossary On
Versions: 1 2 3 4 5 6 7 8 9 10 11 12 13 14 15 16 17 18 19 20 21 22 23 24 25 26 27 28 29 30 31 32 33 34 35 36 37 38 39 40 41 42 43 44 45 46 47 48 49 50
000
ASUS43 KOAX 050410
RWRNE

WEATHER ROUNDUP FOR NEBRASKA
NATIONAL WEATHER SERVICE OMAHA NE
1000 PM CST SUN DEC 04 2016

NOTES: SATELLITE DATA IS BEING USED TO AUGMENT CLOUD COVER ABOVE
       12000 FEET.
       "FAIR" INDICATES FEW OR NO CLOUDS BELOW 12,000 FEET WITH NO
       SIGNIFICANT WEATHER AND/OR OBSTRUCTIONS TO VISIBILITY.

  * THESE STATIONS DO NOT REPORT WEATHER SUCH AS RAIN...SNOW OR FOG.

NEZ001>004-019>022-054>056-050500-
NEBRASKA PANHANDLE

CITY           SKY/WX    TMP DP  RH WIND       PRES   REMARKS
SCOTTSBLUFF    CLOUDY    32  17  54 E5        29.67F WCI  27
ALLIANCE       CLOUDY    25  14  63 E7        29.66F WCI  17
CHADRON        PTCLDY    35  18  49 SW3       29.61F
KIMBALL        CLOUDY    44  21  38 W21       29.70F
SIDNEY         CLOUDY    40  16  37 SW14      29.72F WCI  32
$$

NEZ057>060-069>072-079>082-050500-
SOUTHWEST NEBRASKA

CITY           SKY/WX    TMP DP  RH WIND       PRES   REMARKS
NORTH PLATTE   CLEAR     37  16  42 S15       29.74F WCI  28
IMPERIAL       CLOUDY    37  13  37 SW15      29.76F WCI  28
LEXINGTON      PTCLDY    40  18  40 S17       29.79F WCI  32
MCCOOK         CLOUDY    37  15  40 SW13      29.79F WCI  29
OGALLALA       CLOUDY    35  17  47 W7        29.73F WCI  29
$$

NEZ005>010-023>029-035>040-094-050500-
NORTH CENTRAL NEBRASKA

CITY           SKY/WX    TMP DP  RH WIND       PRES   REMARKS
VALENTINE      CLOUDY    37  16  42 S18       29.66F WCI  27
AINSWORTH      CLEAR     33  19  58 S7        29.69F WCI  26
BROKEN BOW     CLOUDY    34  19  54 SE8       29.76F WCI  27
O`NEILL        CLEAR     32  22  66 S7        29.75F WCI  26
ORD            CLEAR     30  18  60 S9        29.78F WCI  22
THEDFORD       CLEAR     38  16  41 S16       29.69F WCI  28
$$

NEZ041-046>049-061>064-073>077-083>087-050500-
SOUTH CENTRAL NEBRASKA

CITY           SKY/WX    TMP DP  RH WIND       PRES   REMARKS
GRAND ISLAND   CLEAR     33  28  81 S8        29.84F WCI  26
AURORA         CLEAR     35  31  87 SW10      29.85F WCI  27
HASTINGS       CLEAR     36  27  69 S9        29.85F WCI  29
HEBRON         CLEAR     36  30  78 S12       29.89F WCI  28
HOLDREGE       CLOUDY    35  20  54 S14       29.82F WCI  26
KEARNEY *      CLOUDY    34  21  60 S10       29.82F WCI  26
YORK           CLEAR     32  32 100 S10       29.87S WCI  24
$$

NEZ011>018-030>034-042>045-050500-
NORTHEAST NEBRASKA

CITY           SKY/WX    TMP DP  RH WIND       PRES   REMARKS
NORFOLK        CLEAR     35  29  78 S16       29.81S WCI  25
ALBION         CLEAR     33  28  83 SE3       29.82S
BLAIR          CLEAR     33  31  92 S9        29.87F WCI  25
FREMONT        CLEAR     34  31  89 S10G16    29.88S WCI  26
TEKAMAH        CLEAR     33  30  88 SE8       29.88S WCI  26
WAYNE          CLEAR     30  27  88 S6        29.82F WCI  24
$$

NEZ050>053-065>068-078-088>093-050500-
SOUTHEAST NEBRASKA

CITY           SKY/WX    TMP DP  RH WIND       PRES   REMARKS
LINCOLN        CLEAR     33  30  88 SE3       29.90F
OMAHA EPPLEY   CLEAR     30  26  85 SE9       29.90F WCI  22
BEATRICE       CLEAR     35  32  88 S10       29.91F WCI  27
FALLS CITY     CLEAR     34  32  92 S6        29.95S WCI  29
NEBRASKA CITY  CLEAR     35  33  91 SW10      29.92S WCI  27
PLATTSMOUTH    CLEAR     36  30  79 S10       29.90F WCI  28
$$

NEZ044-045-051>053-067-050500-
OMAHA AREA

CITY           SKY/WX    TMP DP  RH WIND       PRES   REMARKS
OMAHA EPPLEY   CLEAR     30  26  85 SE9       29.90F WCI  22
BLAIR          CLEAR     33  31  92 S9        29.87F WCI  25
FREMONT        CLEAR     34  31  89 S10G16    29.88S WCI  26
MILLARD        CLEAR     31  29  93 CALM      29.90F
OFFUTT AFB     CLEAR     24  24 100 CALM      29.90F FOG
PLATTSMOUTH    CLEAR     36  30  79 S10       29.90F WCI  28
WAHOO          FAIR      32  30  91 SW9       29.88F WCI  25
$$




USA.gov is the U.S. government's official web portal to all federal, state and local government web resources and services.